This demonstration page uses our WeatherBlox Daily Observations layout. Learn more.

Left ArrowRight Arrow

36.17497, -115.13722

Hourly Observations for May 1, 2017

Temp ( °F °C ) Dew Point ( °F °C ) Humidity (%) Winds ( mph kmh ) Pressure ( in mb ) Visibility ( mi km ) Precip ( " mm )
12:53 am 00:53 Clear 68 20 20 -6.7 16 16 NW 5 7 29.93 1014 10 16 0.00 0.00
1:53 am 01:53 Clear 65 18.3 21 -6.1 19 19 NNW 7 11 29.93 1014 10 16 0.00 0.00
2:53 am 02:53 Clear 68 20 17 -8.3 14 14 NNW 7 11 29.93 1013 10 16 0.00 0.00
3:53 am 03:53 Clear 68 20 13 -10.6 12 12 NW 15 24 29.93 1013 10 16 0.00 0.00
4:53 am 04:53 Clear 68 20 13 -10.6 12 12 N 12 19 29.93 1014 10 16 0.00 0.00
5:53 am 05:53 Sunny 68 20 16 -8.9 13 13 NNW 17 28 29.94 1014 10 16 0.00 0.00
6:53 am 06:53 Sunny 71 21.7 20 -6.7 14 14 NNW 15 24 29.96 1015 10 16 0.00 0.00
7:53 am 07:53 Sunny 72 22.2 24 -4.4 17 17 N 13 20 29.98 1015 10 16 0.00 0.00
8:53 am 08:53 Sunny 78 25.6 25 -3.9 14 14 NNW 20 31 29.97 1015 10 16 0.00 0.00
9:53 am 09:53 Sunny 80 26.7 24 -4.4 13 13 N 17 28 29.97 1015 10 16 0.00 0.00
10:53 am 10:53 Sunny 81 27.2 24 -4.4 12 12 N 10 17 29.97 1015 10 16 0.00 0.00
11:53 am 11:53 Sunny 82 27.8 23 -5 11 11 NNW 12 19 29.95 1014 10 16 0.00 0.00
12:53 pm 12:53 Sunny 85 29.4 22 -5.6 10 10 N 18 30 29.92 1013 10 16 0.00 0.00
1:53 pm 13:53 Sunny 86 30 22 -5.6 9 9 NNW 13 20 29.90 1013 10 16 0.00 0.00
2:53 pm 14:53 Sunny 86 30 22 -5.6 9 9 NNW 10 17 29.88 1012 10 16 0.00 0.00
3:53 pm 15:53 Sunny 88 31.1 22 -5.6 9 9 NNW 18 30 29.85 1011 10 16 0.00 0.00
4:53 pm 16:53 Sunny 82 28 12 -11 7 7 VRB 3 6 29.80 1009 10 16 0.00 0.00
5:53 pm 17:53 Sunny 87 30.6 21 -6.1 9 9 NW 17 28 29.83 1010 10 16 0.00 0.00
6:53 pm 18:53 Sunny 86 30 22 -5.6 9 9 NNE 17 28 29.82 1010 10 16 0.00 0.00
7:53 pm 19:53 Clear 82 27.8 24 -4.4 12 12 E 9 15 29.84 1011 10 16 0.00 0.00
8:53 pm 20:53 Clear 80 26.7 25 -3.9 13 13 ESE 5 7 29.85 1011 10 16 0.00 0.00
9:53 pm 21:53 Clear 76 24.4 28 -2.2 17 17 N 5 7 29.87 1012 10 16 0.00 0.00
10:53 pm 22:53 Clear 73 22.8 31 -0.6 21 21 WNW 7 11 29.88 1012 10 16 0.00 0.00
11:53 pm 23:53 Clear 71 21.7 30 -1.1 22 22 NNW 7 11 29.88 1012 10 16 0.00 0.00

Powered by AerisWeather